User: anonymous   Login
Location: Unspecified
(0.0000°N, 0.0000°E)
Time: 11:30:53
(UTC+00:00)
Language:

ISS - Orbit

View from above orbital plane
View from above orbital plane
View from above satellite
View from above satellite

Ground track
Ground track

The orbit data is extracted from the following two-line orbital elements,

1 25544U 98067A   15116.12624895  .00023941  00000-0  34166-3 0  9993
2 25544 051.6468 344.0946 0005030 264.6730 232.0365 15.56137255939932
Epoch (UTC): 26 April 2015 03:01:47
Eccentricity: 0.0005030
inclination: 51.6468°
perigee height: 395 km
apogee height: 402 km
right ascension of ascending node: 344.0946°
argument of perigee: 264.6730°
revolutions per day: 15.56137255
mean anomaly at epoch: 232.0365°
orbit number at epoch: 93993

The dashed part of the orbit path shows where the satellite is in the earth's shadow,  

DLR